Flag for U.S.A. Weather past 2 weeks in Concord, California, U.S.A.

Now
68 °F

Broken clouds.


Feels Like: 68 °F
Forecast: 62 / 80 °F
Wind: 10 mph from West

Location: Buchanan Field

Current Time: Jul 22, 2014 at 5:12:13 PM

Latest Report: Jul 22, 2014 at 9:53 AM


Visibility: 10 mi

Pressure: 30.03 "Hg

Humidity: 63%

Dew point: 55 °F

Location of ConcordLocation

Historic Weather in Concord — Graph

°F

Concord temperature yesterday

Maximum temperature yesterday: 76 °F (at 3:53 PM)
Minimum temperature yesterday: 63 °F (at 12:53 AM)
Average temperature yesterday: 68 °F

Past Weeks' High & Low Weather Summary

 TemperatureHumidityPressure
High97 °F (Jul 14, 3:53 PM)90% (Jul 9, 5:53 AM)30.06 "Hg (Jul 9, 5:53 AM)
Low56 °F (Jul 13, 4:53 AM)20% (Jul 14, 3:53 PM)29.77 "Hg (Jul 7, 6:53 PM)
Average69 °F65%29.90 "Hg
* Reported Jul 7 9:53 AM — Jul 22 9:53 AM, Concord, Weather by CustomWeather, © 2014

Note: Actual official high and low records may vary slightly from our data, if they occured in-between our weather recording intervals... More about our weather records

Advertising

Concord weather history for previous 24 hours

 ConditionsComfort  
Time TempWeatherWind HumidityBarometerVisibility
9:53 AM
Jul 22
68 °FBroken clouds.10 mph63%30.03 "Hg10 mi
8:53 AM65 °FScattered clouds.7 mph73%30.03 "Hg10 mi
7:53 AM62 °FBroken clouds.6 mph80%30.02 "Hg10 mi
7:00 AM63 °FPassing clouds.10 mph78%30.06 "Hg10 mi
5:53 AM62 °FPassing clouds.3 mph80%29.97 "Hg10 mi
5:04 AM62 °FPassing clouds.7 mph80%30.03 "Hg10 mi
4:53 AM62 °FOvercast.10 mph80%30.00 "Hg10 mi
3:53 AM61 °FClear.7 mph83%29.99 "Hg10 mi
2:53 AM61 °FPassing clouds.7 mph83%30.00 "Hg10 mi
1:53 AM62 °FClear.6 mph80%29.99 "Hg10 mi
12:53 AM62 °FClear.5 mph80%29.99 "Hg10 mi
11:53 PM
Jul 21
63 °FClear.7 mph78%29.99 "Hg10 mi
10:53 PM64 °FClear.8 mph73%30.00 "Hg10 mi
9:53 PM65 °FPassing clouds.8 mph73%30.01 "Hg10 mi
8:53 PM67 °FSunny.9 mph66%29.98 "Hg10 mi
7:53 PM68 °FPassing clouds.12 mph63%29.98 "Hg10 mi
6:53 PM70 °FSunny.13 mph61%29.98 "Hg10 mi
5:53 PM73 °FPassing clouds.14 mph55%29.97 "Hg10 mi
Weather by CustomWeather, © 2014

See weather overviewHow to use our weather pages